Погода в Порто-Чезарео

Италия     40°16′01″N   17°53′50″E
темп.,
°C
ветер,
м/с
пор.,
м/с
влажн.,
%
обл.,
%
осадки,
мм/ч
давл.,
гПа
погр.,
м
29 ноября, пн
пн2901:00+12з596928 0.2 998527
04:00+12юз587735 1.3 998236
07:00+12зюз101368100 5.6 998765
10:00+13зюз8116884 1.2 10001380
13:00+13юз81260100 1.6 9991640
16:00+12зюз11146790 0.9 10001073
19:00+11юз81367100 1.3 999736
22:00+11з81171100 0.9 1000583
30 ноября, вт
вт3001:00+8зсз915755 1.4 1003720
04:00+8зсз9147597 0.0 1006921
07:00+8зсз10156583 0.1 10101090
10:00+10сз11165330 0.1 10141962
13:00+11ссз8125055 0.1 10162022
16:00+10ссз712450 0.0 1019612
19:00+8зсз49540 0.0 1021255
22:00+7зсз36610 0.0 1022122
1 декабря, ср
ср101:00+9зюз45580 0.0 102193
04:00+9зюз47625 0.0 1020125
07:00+9юз34687 0.0 102056
10:00+13юз57570 0.0 10201147
13:00+13ю45473 0.0 10181280
16:00+11ююв355717 0.0 1017229
19:00+10ююв3566100 0.0 101698
22:00+11ю3368100 0.0 101556
2 декабря, чт
чт201:00+10ю47681 0.0 1013106
04:00+11ю5117777 0.0 1012234
07:00+13ю81376100 0.0 1010381
10:00+16ю9117098 0.0 1009933
13:00+16ю9126654 0.0 1007894
16:00+16ююз10157820 0.0 1005864
19:00+16ю111677100 0.0 1004970
22:00+16ююз12187650 0.1 10031145
3 декабря, пт
пт301:00+15ююз12177648 0.1 1002967
04:00+15ююз121775100 0.1 10011053
07:00+15ю121875100 0.2 10001157
10:00+16ю121771100 0.6 10001433
13:00+16ю101573100 1.5 9981444
16:00+13з677973 1.2 997441
19:00+11сз6877100 1.4 1000687
22:00+11зсз61177100 0.1 1001780